SCP
0 0 0 0 0 0 0 0 0 0 0 0 0 0 0 0 0 0 0 -0 -0 0 -0 -0 -0 -0 -0 -0 -0 -0 -0 -0 0 0 0 0 0 0 0 0 0 0 0 0 0 0 0 0 0
0 0 0 0 0 0 0 0 0 0 0 0 0 0 0 0 0 0 0 -0 0 0 -0 -0 -0 -0 -0 -0 -0 -0 -0 -0 0 0 0 0 0 0 0 0 0 0 0 0 0 0 0 0 0
0 0 0 0 0 0 0 0 0 0 0 0 0 0 0 0 0 0 0 0 0 0 0 0 -0 -0 -0 -0 -0 -0 -0 -0 0 0 0 0 0 0 0 0 0 0 0 0 0 0 0 0 0
0 0 0 0 0 0 0 0 0 0 0 0 0 0 0 0 0 0 0 0 0 0 0 0 -0 -0 -0 -0 -0 0 0 0 0 0 0 0 0 0 0 0 0 0 0 0 0 0 0 0 0
0 0 0 0 0 0 0 0 0 0 0 0 0 0 0 0 0 0 0 0 0 0 0 0 0 0 0 0 0 0 0 0 0 0 0 0 0 0 0 0 0 0 0 0 0 0 0 0 0
0 0 0 0 0 0 0 0 0 0 0 0 0 0 0 0 0 0 0 0 0 0 0 0 0 0 0 0 0 0 0 0 0 0 0 0 0 0 0 0 0 0 0 0 0 0 0 0 0
0 0 0 0 0 0 0 0 0 0 0 0 0 0 0 0 0 0 0 0 0 0 0 0 0 0 0 0 0 0 0 0 0 0 0 0 0 0 0 0 0 0 0 0 0 0 0 0 0
0 0 0 0 0 0 0 0 0 0 0 0 0 0 0 0 0 0 0 0 0 0 0 0 0 0 0 0 0 0 0 0 0 0 0 0 0 0 0 0 0 0 0 0 0 0 0 0 0
0 0 0 0 0 0 0 0 0 0 0 0 0 0 0 0 0 0 0 0 0 0 0 0 0 0 0 0 0 0 0 0 0 0 0 0 0 0 0 0 0 0 0 0 0 0 0 0 0
0 0 0 0 0 0 0 0 0 0 0 0 0 0 0 0 0 0 0 0 0 0 0 0 0 0 0 0 0 0 0 0 0 0 0 0 0 0 0 0 0 0 0 0 0 0 0 0 0
0 0 0 0 0 0 0 0 0 0 0 0 0 0 0 0 0 0 0 0 0 0 0 0 0 0 0 0 0 0 0 0 0 0 0 0 0 0 0 0 0 0 0 0 0 0 0 0 0
0 0 0 0 0 0 0 0 0 0 0 0 0 0 0 0 0 0 0 0 0 0 0 0 0 0 0 0 0 0 0 0 0 0 0 0 0 0 0 0 0 0 0 0 0 0 0 0 0
0 0 0 0 0 0 0 0 0 0 0 0 0 0 0 0 0 0 0 0 0 0 0 0 0 0 0 0 0 0 0 0 0 0 0 0 0 0 0 0 0 0 0 0 0 0 0 0 0
0 0 0 0 0 0 0 0 0 0 0 0 0 0 0 0 0 0 0 0 0 0 0 0 0 0 0 0 0 0 0 0 0 0 0 0 0 0 0 0 0 0 0 0 0 0 0 0 0
0 0 0 0 0 0 0 0 0 0 0 0 0 0 0 0 0 0 0 0 0 0 0 0 0 0 0 0 0 0 0 0 0 0 0 0 0 0 0 0 0 0 0 0 0 0 0 0 0
0 0 0 0 0 0 0 0 0 0 0 0 0 0 0 0 0 0 0 0 0 0 0 0 0 0 0 0 0 0 0 0 0 0 0 0 0 0 0 0 0 0 0 0 0 0 0 0 0
0 0 0 0 0 0 0 0 0 0 0 0 0 0 0 0 0 0 0 0 0 0 0 0 0 0 0 0 -0 0 0 0 0 0 0 0 0 0 0 0 0 0 0 0 0 0 0 0 0
0 0 0 0 0 0 0 0 0 0 0 0 0 0 0 0 0 0 0 0 0 0 0 0 0 0 0 -0 -0 -0 0 0 0 0 0 0 0 0 0 0 0 0 0 0 0 0 0 0 0
0 0 0 0 0 0 0 0 0 0 0 0 0 0 0 0 0 0 0 0 0 0 0 0 0 0 0 0 0 0 -0 0 0 0 0 0 0 0 0 0 0 0 0 0 0 0 0 -0 0
0 0 0 0 0 0 0 0 0 0 0 0 0 0 0 0 0 0 0 0 0 0 0 0 0 0 0 0 0 -0 -0 -0 -0 -0 0 0 0 0 0 0 0 0 0 0 0 0 0 -0 0
0 0 0 0 0 0 0 0 0 0 0 0 0 0 0 0 0 0 0 0 0 0 0 0 0 0 0 0 0 -0 -0 -0 0 0 0 0 0 0 0 0 0 0 -0 -0 -0 -0 -0 -0 -0
0 0 0 0 0 0 0 0 0 0 0 0 0 0 0 0 0 0 0 0 0 0 0 0 0 0 0 0 0 0 -0 -0 -0 -0 0 0 0 0 0 0 0 0 0 0 -0 -0 -0 -0 -0
0 0 0 0 0 0 0 0 0 0 0 0 0 0 0 0 0 0 0 0 0 0 0 0 0 0 0 0 -0 -0 -0 -0 -0 -0 0 0 0 0 0 0 0 0 0 0 0 0 -0 -0 -0
0 0 0 0 0 0 0 0 0 0 0 0 0 0 0 0 0 0 0 0 0 0 0 0 -0 -0 -0 -0 -0 -0 -0 -0 0 0 0 0 0 0 0 0 0 0 0 0 0 0 -0 -0 -0
0 0 0 0 0 0 0 0 0 0 0 0 0 0 0 0 0 0 0 0 0 0 -0 -0 -0 -0 -0 -0 -0 -0 -0 -0 -0 0 0 0 0 0 0 0 0 0 0 0 0 0 0 0 0
0 0 0 0 0 0 0 0 0 0 0 0 0 0 0 0 0 0 0 0 0 -0 -0 -0 -0 -0 -0 -0 -0 -0 -0 -0 -0 0 0 0 0 0 0 0 0 0 0 0 0 0 0 0 0
0 0 0 0 0 0 0 0 0 0 0 0 0 0 0 0 0 0 0 0 0 -0 -0 -0 0 0 0 0 0 -0 -0 0 0 0 0 0 0 0 0 0 0 0 0 0 0 0 0 0 0
0 0 0 0 0 0 0 0 0 0 0 0 0 0 0 0 0 0 0 0 0 0 0 0 0 0 0 0 0 0 0 0 0 0 0 0 0 0 0 0 0 0 0 0 0 0 0 0 0
0 0 0 0 0 0 0 0 0 0 0 0 0 0 0 0 0 0 0 0 0 0 0 0 0 0 0 0 0 0 0 0 0 0 0 0 0 0 0 0 0 0 0 0 0 0 0 0 0
0 0 0 0 0 0 0 0 0 0 0 0 0 0 0 0 0 0 0 0 0 0 0 0 0 0 0 0 0 0 0 0 0 0 0 0 0 0 0 0 0 0 0 0 0 0 0 0 0
Wind_Speed_500mb
10 14 14 6 7 9 4 7 4 7 6 19 23 26 23 25 9 8 8 18 24 25 19 12 8 9 8 5 5 3 0 2 3 10 11 9 10 10 11 13 14 15 17 17 18 21 20 17 13
9 11 9 7 8 5 5 8 4 3 29 33 33 20 22 8 16 8 13 12 18 20 17 10 9 9 12 10 8 8 10 8 4 5 11 13 8 11 12 15 17 17 19 20 19 20 24 20 18
13 5 4 7 6 7 6 5 9 19 22 3 13 26 11 10 10 6 11 14 14 15 15 14 10 15 16 17 18 13 12 17 16 11 12 8 14 12 12 13 17 18 18 20 20 21 18 20 18
6 1 7 6 4 3 5 4 13 22 14 14 31 21 17 14 3 10 13 13 13 14 15 15 15 16 16 17 18 22 18 19 19 23 18 18 18 18 20 19 17 19 21 21 21 21 20 20 20
8 3 6 7 2 4 3 9 21 6 9 13 2 13 12 7 8 10 12 14 16 17 17 18 20 22 22 20 18 19 22 26 30 29 26 25 25 24 26 25 25 24 24 24 24 25 25 22 21
6 3 5 18 6 8 7 9 8 11 11 13 14 14 9 7 7 9 15 18 19 20 21 24 25 26 27 28 26 23 25 28 32 34 32 31 33 32 32 32 31 30 31 30 29 29 30 32 33
6 5 8 12 8 7 8 14 10 8 10 14 13 9 15 6 12 13 15 19 21 23 24 24 25 26 27 29 30 30 30 29 33 34 37 39 39 36 36 40 38 37 32 29 35 35 34 34 35
5 5 10 10 11 7 5 9 14 8 7 16 16 9 7 7 11 11 10 12 15 20 24 25 25 25 25 26 28 30 31 32 31 33 34 41 42 39 41 41 42 40 40 36 32 33 39 43 41
10 7 4 7 14 8 10 7 9 9 17 18 14 16 13 9 8 6 6 10 12 14 18 21 21 21 21 23 25 26 28 29 30 31 34 39 41 39 38 41 42 40 40 42 38 38 36 40 45
7 8 9 2 7 5 9 11 13 10 12 15 27 24 15 9 4 4 9 16 19 21 23 26 25 26 24 20 20 21 23 26 28 28 31 33 36 40 39 45 44 43 43 42 42 44 44 43 48
7 5 6 3 12 13 11 10 7 23 5 9 21 24 17 10 10 12 16 19 24 25 23 25 28 29 29 27 24 20 18 19 22 24 25 26 28 31 40 41 46 47 47 48 48 49 44 43 43
10 10 7 4 8 11 9 19 13 8 12 24 27 22 15 9 10 13 14 13 14 18 24 26 27 28 31 32 31 31 26 23 21 22 23 25 26 27 30 30 35 40 45 45 46 46 52 54 51
9 6 15 17 17 21 16 12 17 27 30 28 26 20 14 11 13 15 16 13 13 13 18 22 25 27 30 32 34 34 35 35 33 29 27 26 25 26 27 30 32 35 37 43 49 47 45 46 53
10 20 11 14 13 11 14 13 6 21 32 29 23 20 15 12 15 15 17 19 19 20 21 23 24 27 28 30 33 37 39 40 38 37 38 36 34 32 31 29 31 33 36 38 43 49 51 52 44
14 9 5 15 9 6 11 2 4 43 36 31 25 20 15 12 13 15 20 20 24 25 27 26 28 28 27 29 31 33 37 38 40 42 41 41 41 40 39 37 34 34 34 36 38 41 47 53 55
8 7 4 6 7 3 4 8 5 46 40 32 26 21 15 11 10 14 18 21 24 24 26 29 30 30 31 32 33 33 33 34 37 39 41 43 45 45 45 44 42 42 39 39 40 42 45 50 55
11 5 6 5 4 2 5 3 14 41 36 33 30 25 18 12 10 11 13 16 19 21 24 25 27 30 31 32 33 36 36 37 39 38 39 40 41 43 45 48 49 49 47 47 47 46 47 48 50
10 7 6 6 4 3 3 11 11 41 41 41 37 31 24 17 13 11 10 11 14 17 19 21 24 27 29 31 32 34 36 39 41 43 44 43 44 44 44 45 47 49 51 52 53 54 52 52 56
9 4 2 2 5 3 11 13 15 38 42 40 40 38 32 24 19 14 11 8 9 11 14 16 19 23 23 24 29 34 39 40 41 43 44 45 47 46 46 47 48 50 54 56 54 56 58 63 67
4 4 4 3 3 0 8 20 18 33 37 58 51 46 40 33 27 22 17 12 8 7 10 14 18 22 25 28 33 34 34 36 37 40 42 46 47 49 51 52 53 52 52 55 59 61 59 60 67
4 4 4 2 4 1 10 15 10 14 35 54 55 52 46 41 32 27 22 15 10 6 6 10 15 20 23 27 28 28 29 31 32 38 42 44 43 44 46 49 51 53 56 60 62 63 63 62 58
5 1 4 4 3 7 5 11 10 11 18 23 62 65 56 49 39 30 26 18 12 7 4 5 10 15 19 24 27 32 35 36 38 39 39 39 40 41 43 45 47 49 52 55 58 59 60 59 59
2 2 5 4 6 4 1 1 14 6 14 35 52 71 66 56 46 36 29 21 15 10 5 1 6 11 16 22 26 30 32 34 35 35 36 36 39 42 45 47 49 50 52 53 54 54 55 53 53
9 7 8 6 5 4 4 7 11 11 15 9 40 71 75 63 52 38 28 25 19 15 9 4 2 7 12 18 23 27 29 31 32 35 37 38 39 41 44 46 49 52 54 55 55 53 52 52 50
6 8 5 9 7 11 1 2 20 17 16 12 36 65 80 69 59 47 40 31 23 18 12 7 2 4 9 15 21 25 28 31 34 37 40 41 42 43 46 48 50 51 53 54 55 54 52 51 51
5 9 8 12 5 8 5 13 14 12 7 20 19 56 79 77 66 55 41 29 23 19 15 10 5 3 8 15 21 26 29 31 33 36 39 42 43 44 47 48 49 51 53 54 54 54 52 51 49
6 6 7 12 3 6 7 16 20 8 15 11 17 32 68 83 74 60 46 34 25 23 15 11 10 7 8 16 22 27 31 32 32 35 38 41 42 44 47 49 51 52 54 56 57 56 54 51 51
7 5 7 5 1 8 9 12 12 9 8 11 15 37 55 78 77 64 53 39 27 23 17 12 13 14 14 19 25 30 34 34 34 35 38 41 43 45 48 48 49 51 54 55 57 58 57 56 56
3 2 6 3 7 9 3 12 13 10 8 14 23 32 47 70 78 67 55 38 31 25 20 16 17 21 21 21 26 33 38 37 37 37 39 41 45 48 50 50 50 52 54 56 58 58 57 57 58
5 11 10 8 10 4 3 19 2 10 13 17 19 25 37 62 72 63 51 39 36 32 23 21 23 26 24 24 29 36 43 41 38 38 40 43 46 48 51 51 52 52 53 56 58 58 59 59 59
Wind_Direction_500mb
308 339 348 43 48 63 41 315 313 103 45 62 103 101 99 57 32 132 164 359 17 5 2 360 9 324 326 301 320 271 193 122 337 327 305 298 301 294 284 278 272 268 273 279 289 281 283 278 288
309 333 32 71 87 65 312 313 65 76 131 104 85 75 64 76 55 80 139 20 14 6 355 331 323 317 315 287 307 302 282 277 285 280 314 296 278 288 287 285 288 279 271 272 278 290 281 277 278
296 354 26 84 105 134 152 21 103 115 143 113 97 69 67 14 28 50 2 3 1 356 359 352 334 312 307 303 274 263 290 289 271 266 267 277 300 300 292 289 288 285 284 272 272 281 285 278 274
284 29 65 78 94 98 115 118 146 123 81 70 110 73 85 49 97 358 346 341 343 340 343 342 335 329 320 310 296 275 266 273 281 273 270 269 265 266 280 284 286 290 283 284 278 280 288 281 271
214 203 94 70 70 106 52 71 172 79 86 51 126 129 85 45 28 345 335 335 325 323 322 320 316 312 310 311 301 286 281 276 272 279 278 277 270 270 271 270 277 278 282 276 278 273 275 276 273
154 172 109 187 187 141 104 71 90 86 92 66 74 91 108 47 355 359 351 337 331 323 316 311 307 304 300 295 291 285 270 264 268 270 270 276 277 273 269 272 271 266 275 276 273 272 268 268 271
145 108 184 148 202 174 143 111 73 97 105 52 106 83 142 5 15 10 356 346 337 333 326 317 308 301 295 291 286 279 275 272 266 265 266 266 269 274 277 270 269 269 266 265 270 273 274 269 268
113 89 157 168 179 207 31 102 102 96 103 104 114 109 149 350 23 18 4 355 345 333 329 324 319 307 295 287 282 279 276 273 270 263 263 267 266 270 274 275 273 270 265 267 266 266 271 274 272
103 59 213 204 160 157 131 109 73 90 111 75 100 122 109 66 39 26 15 19 16 6 356 353 347 339 319 299 291 282 280 279 272 268 262 262 266 270 273 276 276 278 276 270 267 270 266 272 272
87 146 215 26 1 106 76 106 124 110 98 77 100 110 109 107 100 13 6 11 10 11 13 11 7 3 358 342 319 302 292 284 282 279 274 271 268 264 270 271 272 273 277 276 275 276 268 267 271
44 117 137 63 110 121 110 87 96 128 75 161 154 127 119 100 67 47 32 21 17 19 17 16 17 15 12 11 4 345 330 315 303 297 297 295 289 285 276 272 270 270 272 274 275 274 274 277 274
86 58 99 74 116 113 104 123 91 67 117 130 130 124 116 95 54 39 38 36 30 19 18 21 24 22 22 21 19 18 12 3 348 338 323 308 303 304 298 297 283 280 278 279 279 281 274 269 273
84 118 71 83 102 93 115 86 124 114 132 136 132 129 115 84 57 45 43 44 50 45 40 32 29 26 27 26 28 29 29 25 22 12 3 354 339 325 318 313 310 304 297 289 286 283 289 285 276
88 98 91 65 77 96 113 133 110 158 150 142 142 133 116 85 68 62 64 60 64 60 54 46 45 41 34 30 30 33 34 35 32 28 24 18 11 2 353 338 321 315 308 306 296 291 291 287 290
120 80 54 26 25 88 105 63 217 166 163 153 152 141 124 90 76 75 74 71 68 64 59 55 52 49 45 42 37 33 32 32 33 35 32 27 23 18 12 6 356 347 334 322 310 302 295 292 289
70 66 133 354 4 108 125 253 157 168 169 163 163 156 145 122 97 84 81 80 76 71 67 61 57 55 52 48 45 42 38 34 32 31 29 27 25 23 21 17 13 9 0 352 341 328 313 303 298
14 211 200 299 22 305 164 239 171 178 182 176 180 177 170 158 134 111 92 85 81 74 69 66 63 61 57 54 49 45 41 40 39 37 33 29 25 21 18 17 17 16 12 7 2 355 346 335 321
199 214 224 241 354 16 238 253 191 193 195 194 191 189 189 182 171 150 125 99 84 76 70 64 60 57 53 52 50 46 40 39 37 35 34 32 30 27 25 21 18 14 11 9 7 4 1 354 346
119 149 205 306 346 291 243 263 226 204 208 203 200 199 200 195 187 176 161 131 99 82 73 67 58 53 49 48 44 39 34 34 31 31 29 28 28 27 27 26 22 19 15 13 9 7 5 3 356
94 125 231 317 345 37 333 270 232 208 216 209 206 206 207 203 198 192 183 171 146 110 78 61 52 47 40 35 35 31 28 27 27 26 23 22 21 21 21 21 21 19 17 15 13 12 11 10 14
50 187 193 264 320 350 324 278 221 223 212 215 218 220 213 211 205 201 196 191 177 140 90 62 48 42 38 36 34 28 23 21 21 21 17 16 14 15 16 17 17 16 15 15 14 13 13 14 13
205 118 106 119 83 247 16 282 282 223 224 212 215 216 214 211 208 209 206 201 195 185 134 68 45 38 33 28 24 19 17 16 16 13 11 8 8 10 12 12 12 12 12 11 12 11 10 9 9
178 140 105 89 99 342 259 359 267 132 235 224 215 213 214 212 211 210 205 201 202 200 193 114 38 31 26 20 17 14 12 10 9 6 4 3 4 4 5 6 7 8 8 8 6 5 5 7 6
147 75 47 62 74 359 256 164 268 200 215 205 206 213 212 208 208 208 205 206 205 205 201 207 7 20 14 10 6 4 2 2 1 359 358 357 357 357 358 360 1 2 2 3 2 1 359 358 359
68 65 343 348 8 231 135 142 250 257 228 223 200 206 210 207 205 204 205 206 206 209 209 209 251 347 355 355 354 352 351 352 354 355 355 353 352 353 354 354 354 354 355 355 355 355 354 354 353
146 139 159 219 218 283 357 240 255 224 267 245 236 222 210 205 204 206 205 200 203 207 212 215 224 282 343 351 349 347 344 342 343 347 349 349 348 348 347 347 346 347 348 349 350 350 350 349 347
218 189 173 102 85 37 230 286 296 240 265 267 221 206 208 202 202 204 201 199 200 205 205 213 230 241 317 337 340 341 340 335 332 336 340 342 342 341 340 339 340 341 342 344 345 345 345 344 344
140 194 78 5 224 273 281 281 240 309 309 237 224 211 208 204 200 202 202 202 202 205 209 232 252 253 289 319 329 330 328 324 324 325 330 334 334 333 334 334 334 335 336 337 339 340 340 341 340
89 287 31 118 151 184 273 263 215 229 324 285 251 235 214 204 198 201 201 205 210 216 224 247 269 264 274 302 316 323 320 311 310 316 319 325 327 327 328 329 330 331 332 333 334 335 336 335 335
164 194 158 137 245 237 157 267 306 264 291 313 268 230 215 202 199 201 202 211 221 232 243 262 268 270 271 289 309 319 318 308 300 303 309 316 321 321 323 324 325 327 328 329 330 331 332 332 332
Wind_Speed_850mb
10 14 14 6 7 9 4 7 4 7 6 19 23 26 23 25 9 8 8 18 24 25 19 12 8 9 8 5 5 3 0 2 3 10 11 9 10 10 11 13 14 15 17 17 18 21 20 17 13
9 11 9 7 8 5 5 8 4 3 29 33 33 20 22 8 16 8 13 12 18 20 17 10 9 9 12 10 8 8 10 8 4 5 11 13 8 11 12 15 17 17 19 20 19 20 24 20 18
13 5 4 7 6 7 6 5 9 19 22 3 13 26 11 10 10 6 11 14 14 15 15 14 10 15 16 17 18 13 12 17 16 11 12 8 14 12 12 13 17 18 18 20 20 21 18 20 18
6 1 7 6 4 3 5 4 13 22 14 14 31 21 17 14 3 10 13 13 13 14 15 15 15 16 16 17 18 22 18 19 19 23 18 18 18 18 20 19 17 19 21 21 21 21 20 20 20
8 3 6 7 2 4 3 9 21 6 9 13 2 13 12 7 8 10 12 14 16 17 17 18 20 22 22 20 18 19 22 26 30 29 26 25 25 24 26 25 25 24 24 24 24 25 25 22 21
6 3 5 18 6 8 7 9 8 11 11 13 14 14 9 7 7 9 15 18 19 20 21 24 25 26 27 28 26 23 25 28 32 34 32 31 33 32 32 32 31 30 31 30 29 29 30 32 33
6 5 8 12 8 7 8 14 10 8 10 14 13 9 15 6 12 13 15 19 21 23 24 24 25 26 27 29 30 30 30 29 33 34 37 39 39 36 36 40 38 37 32 29 35 35 34 34 35
5 5 10 10 11 7 5 9 14 8 7 16 16 9 7 7 11 11 10 12 15 20 24 25 25 25 25 26 28 30 31 32 31 33 34 41 42 39 41 41 42 40 40 36 32 33 39 43 41
10 7 4 7 14 8 10 7 9 9 17 18 14 16 13 9 8 6 6 10 12 14 18 21 21 21 21 23 25 26 28 29 30 31 34 39 41 39 38 41 42 40 40 42 38 38 36 40 45
7 8 9 2 7 5 9 11 13 10 12 15 27 24 15 9 4 4 9 16 19 21 23 26 25 26 24 20 20 21 23 26 28 28 31 33 36 40 39 45 44 43 43 42 42 44 44 43 48
7 5 6 3 12 13 11 10 7 23 5 9 21 24 17 10 10 12 16 19 24 25 23 25 28 29 29 27 24 20 18 19 22 24 25 26 28 31 40 41 46 47 47 48 48 49 44 43 43
10 10 7 4 8 11 9 19 13 8 12 24 27 22 15 9 10 13 14 13 14 18 24 26 27 28 31 32 31 31 26 23 21 22 23 25 26 27 30 30 35 40 45 45 46 46 52 54 51
9 6 15 17 17 21 16 12 17 27 30 28 26 20 14 11 13 15 16 13 13 13 18 22 25 27 30 32 34 34 35 35 33 29 27 26 25 26 27 30 32 35 37 43 49 47 45 46 53
10 20 11 14 13 11 14 13 6 21 32 29 23 20 15 12 15 15 17 19 19 20 21 23 24 27 28 30 33 37 39 40 38 37 38 36 34 32 31 29 31 33 36 38 43 49 51 52 44
14 9 5 15 9 6 11 2 4 43 36 31 25 20 15 12 13 15 20 20 24 25 27 26 28 28 27 29 31 33 37 38 40 42 41 41 41 40 39 37 34 34 34 36 38 41 47 53 55
8 7 4 6 7 3 4 8 5 46 40 32 26 21 15 11 10 14 18 21 24 24 26 29 30 30 31 32 33 33 33 34 37 39 41 43 45 45 45 44 42 42 39 39 40 42 45 50 55
11 5 6 5 4 2 5 3 14 41 36 33 30 25 18 12 10 11 13 16 19 21 24 25 27 30 31 32 33 36 36 37 39 38 39 40 41 43 45 48 49 49 47 47 47 46 47 48 50
10 7 6 6 4 3 3 11 11 41 41 41 37 31 24 17 13 11 10 11 14 17 19 21 24 27 29 31 32 34 36 39 41 43 44 43 44 44 44 45 47 49 51 52 53 54 52 52 56
9 4 2 2 5 3 11 13 15 38 42 40 40 38 32 24 19 14 11 8 9 11 14 16 19 23 23 24 29 34 39 40 41 43 44 45 47 46 46 47 48 50 54 56 54 56 58 63 67
4 4 4 3 3 0 8 20 18 33 37 58 51 46 40 33 27 22 17 12 8 7 10 14 18 22 25 28 33 34 34 36 37 40 42 46 47 49 51 52 53 52 52 55 59 61 59 60 67
4 4 4 2 4 1 10 15 10 14 35 54 55 52 46 41 32 27 22 15 10 6 6 10 15 20 23 27 28 28 29 31 32 38 42 44 43 44 46 49 51 53 56 60 62 63 63 62 58
5 1 4 4 3 7 5 11 10 11 18 23 62 65 56 49 39 30 26 18 12 7 4 5 10 15 19 24 27 32 35 36 38 39 39 39 40 41 43 45 47 49 52 55 58 59 60 59 59
2 2 5 4 6 4 1 1 14 6 14 35 52 71 66 56 46 36 29 21 15 10 5 1 6 11 16 22 26 30 32 34 35 35 36 36 39 42 45 47 49 50 52 53 54 54 55 53 53
9 7 8 6 5 4 4 7 11 11 15 9 40 71 75 63 52 38 28 25 19 15 9 4 2 7 12 18 23 27 29 31 32 35 37 38 39 41 44 46 49 52 54 55 55 53 52 52 50
6 8 5 9 7 11 1 2 20 17 16 12 36 65 80 69 59 47 40 31 23 18 12 7 2 4 9 15 21 25 28 31 34 37 40 41 42 43 46 48 50 51 53 54 55 54 52 51 51
5 9 8 12 5 8 5 13 14 12 7 20 19 56 79 77 66 55 41 29 23 19 15 10 5 3 8 15 21 26 29 31 33 36 39 42 43 44 47 48 49 51 53 54 54 54 52 51 49
6 6 7 12 3 6 7 16 20 8 15 11 17 32 68 83 74 60 46 34 25 23 15 11 10 7 8 16 22 27 31 32 32 35 38 41 42 44 47 49 51 52 54 56 57 56 54 51 51
7 5 7 5 1 8 9 12 12 9 8 11 15 37 55 78 77 64 53 39 27 23 17 12 13 14 14 19 25 30 34 34 34 35 38 41 43 45 48 48 49 51 54 55 57 58 57 56 56
3 2 6 3 7 9 3 12 13 10 8 14 23 32 47 70 78 67 55 38 31 25 20 16 17 21 21 21 26 33 38 37 37 37 39 41 45 48 50 50 50 52 54 56 58 58 57 57 58
5 11 10 8 10 4 3 19 2 10 13 17 19 25 37 62 72 63 51 39 36 32 23 21 23 26 24 24 29 36 43 41 38 38 40 43 46 48 51 51 52 52 53 56 58 58 59 59 59
Wind_Direction_850mb
308 339 348 43 48 63 41 315 313 103 45 62 103 101 99 57 32 132 164 359 17 5 2 360 9 324 326 301 320 271 193 122 337 327 305 298 301 294 284 278 272 268 273 279 289 281 283 278 288
309 333 32 71 87 65 312 313 65 76 131 104 85 75 64 76 55 80 139 20 14 6 355 331 323 317 315 287 307 302 282 277 285 280 314 296 278 288 287 285 288 279 271 272 278 290 281 277 278
296 354 26 84 105 134 152 21 103 115 143 113 97 69 67 14 28 50 2 3 1 356 359 352 334 312 307 303 274 263 290 289 271 266 267 277 300 300 292 289 288 285 284 272 272 281 285 278 274
284 29 65 78 94 98 115 118 146 123 81 70 110 73 85 49 97 358 346 341 343 340 343 342 335 329 320 310 296 275 266 273 281 273 270 269 265 266 280 284 286 290 283 284 278 280 288 281 271
214 203 94 70 70 106 52 71 172 79 86 51 126 129 85 45 28 345 335 335 325 323 322 320 316 312 310 311 301 286 281 276 272 279 278 277 270 270 271 270 277 278 282 276 278 273 275 276 273
154 172 109 187 187 141 104 71 90 86 92 66 74 91 108 47 355 359 351 337 331 323 316 311 307 304 300 295 291 285 270 264 268 270 270 276 277 273 269 272 271 266 275 276 273 272 268 268 271
145 108 184 148 202 174 143 111 73 97 105 52 106 83 142 5 15 10 356 346 337 333 326 317 308 301 295 291 286 279 275 272 266 265 266 266 269 274 277 270 269 269 266 265 270 273 274 269 268
113 89 157 168 179 207 31 102 102 96 103 104 114 109 149 350 23 18 4 355 345 333 329 324 319 307 295 287 282 279 276 273 270 263 263 267 266 270 274 275 273 270 265 267 266 266 271 274 272
103 59 213 204 160 157 131 109 73 90 111 75 100 122 109 66 39 26 15 19 16 6 356 353 347 339 319 299 291 282 280 279 272 268 262 262 266 270 273 276 276 278 276 270 267 270 266 272 272
87 146 215 26 1 106 76 106 124 110 98 77 100 110 109 107 100 13 6 11 10 11 13 11 7 3 358 342 319 302 292 284 282 279 274 271 268 264 270 271 272 273 277 276 275 276 268 267 271
44 117 137 63 110 121 110 87 96 128 75 161 154 127 119 100 67 47 32 21 17 19 17 16 17 15 12 11 4 345 330 315 303 297 297 295 289 285 276 272 270 270 272 274 275 274 274 277 274
86 58 99 74 116 113 104 123 91 67 117 130 130 124 116 95 54 39 38 36 30 19 18 21 24 22 22 21 19 18 12 3 348 338 323 308 303 304 298 297 283 280 278 279 279 281 274 269 273
84 118 71 83 102 93 115 86 124 114 132 136 132 129 115 84 57 45 43 44 50 45 40 32 29 26 27 26 28 29 29 25 22 12 3 354 339 325 318 313 310 304 297 289 286 283 289 285 276
88 98 91 65 77 96 113 133 110 158 150 142 142 133 116 85 68 62 64 60 64 60 54 46 45 41 34 30 30 33 34 35 32 28 24 18 11 2 353 338 321 315 308 306 296 291 291 287 290
120 80 54 26 25 88 105 63 217 166 163 153 152 141 124 90 76 75 74 71 68 64 59 55 52 49 45 42 37 33 32 32 33 35 32 27 23 18 12 6 356 347 334 322 310 302 295 292 289
70 66 133 354 4 108 125 253 157 168 169 163 163 156 145 122 97 84 81 80 76 71 67 61 57 55 52 48 45 42 38 34 32 31 29 27 25 23 21 17 13 9 0 352 341 328 313 303 298
14 211 200 299 22 305 164 239 171 178 182 176 180 177 170 158 134 111 92 85 81 74 69 66 63 61 57 54 49 45 41 40 39 37 33 29 25 21 18 17 17 16 12 7 2 355 346 335 321
199 214 224 241 354 16 238 253 191 193 195 194 191 189 189 182 171 150 125 99 84 76 70 64 60 57 53 52 50 46 40 39 37 35 34 32 30 27 25 21 18 14 11 9 7 4 1 354 346
119 149 205 306 346 291 243 263 226 204 208 203 200 199 200 195 187 176 161 131 99 82 73 67 58 53 49 48 44 39 34 34 31 31 29 28 28 27 27 26 22 19 15 13 9 7 5 3 356
94 125 231 317 345 37 333 270 232 208 216 209 206 206 207 203 198 192 183 171 146 110 78 61 52 47 40 35 35 31 28 27 27 26 23 22 21 21 21 21 21 19 17 15 13 12 11 10 14
50 187 193 264 320 350 324 278 221 223 212 215 218 220 213 211 205 201 196 191 177 140 90 62 48 42 38 36 34 28 23 21 21 21 17 16 14 15 16 17 17 16 15 15 14 13 13 14 13
205 118 106 119 83 247 16 282 282 223 224 212 215 216 214 211 208 209 206 201 195 185 134 68 45 38 33 28 24 19 17 16 16 13 11 8 8 10 12 12 12 12 12 11 12 11 10 9 9
178 140 105 89 99 342 259 359 267 132 235 224 215 213 214 212 211 210 205 201 202 200 193 114 38 31 26 20 17 14 12 10 9 6 4 3 4 4 5 6 7 8 8 8 6 5 5 7 6
147 75 47 62 74 359 256 164 268 200 215 205 206 213 212 208 208 208 205 206 205 205 201 207 7 20 14 10 6 4 2 2 1 359 358 357 357 357 358 360 1 2 2 3 2 1 359 358 359
68 65 343 348 8 231 135 142 250 257 228 223 200 206 210 207 205 204 205 206 206 209 209 209 251 347 355 355 354 352 351 352 354 355 355 353 352 353 354 354 354 354 355 355 355 355 354 354 353
146 139 159 219 218 283 357 240 255 224 267 245 236 222 210 205 204 206 205 200 203 207 212 215 224 282 343 351 349 347 344 342 343 347 349 349 348 348 347 347 346 347 348 349 350 350 350 349 347
218 189 173 102 85 37 230 286 296 240 265 267 221 206 208 202 202 204 201 199 200 205 205 213 230 241 317 337 340 341 340 335 332 336 340 342 342 341 340 339 340 341 342 344 345 345 345 344 344
140 194 78 5 224 273 281 281 240 309 309 237 224 211 208 204 200 202 202 202 202 205 209 232 252 253 289 319 329 330 328 324 324 325 330 334 334 333 334 334 334 335 336 337 339 340 340 341 340
89 287 31 118 151 184 273 263 215 229 324 285 251 235 214 204 198 201 201 205 210 216 224 247 269 264 274 302 316 323 320 311 310 316 319 325 327 327 328 329 330 331 332 333 334 335 336 335 335
164 194 158 137 245 237 157 267 306 264 291 313 268 230 215 202 199 201 202 211 221 232 243 262 268 270 271 289 309 319 318 308 300 303 309 316 321 321 323 324 325 327 328 329 330 331 332 332 332